User: anonymous   Login
Location: Unspecified
(50.1700°N, 6.8600°E)
Time: 10:19:00
(UTC+00:00)
Language:

SJ-12 - Orbit

View from above orbital plane
View from above orbital plane
View from above satellite
View from above satellite

Ground track
Ground track

The orbit data is extracted from the following two-line orbital elements,

1 36596U 10027A   19295.82154060 -.00000361 +00000-0 -26631-4 0  9995
2 36596 097.6362 285.2101 0013080 041.4169 318.8025 14.96593406510145
Epoch (UTC): 22 October 2019 19:43:01
Eccentricity: 0.0013080
inclination: 97.6362°
perigee height: 568 km
apogee height: 586 km
right ascension of ascending node: 285.2101°
argument of perigee: 41.4169°
revolutions per day: 14.96593406
mean anomaly at epoch: 318.8025°
orbit number at epoch: 51014

The dashed part of the orbit path shows where the satellite is in the earth's shadow,  

DLR